Pine Bluff, AR

8:25 PM CST on December 10, 2016 (GMT -0600)
Grider

Weather History for KPBF - August, 2012

Change the Weather History Date:

Friday, August 17, 2012

  Actual Average Record
Temperature  
Mean Temperature 80 °F 81 °F  
Max Temperature 90 °F 92 °F 107 °F (1909)
Min Temperature 70 °F 71 °F 56 °F (1992)
Degree Days  
Heating Degree Days 0 0  
Month to date heating degree days 0 0  
Since 1 June heating degree days 0 0  
Since 1 July heating degree days 0 0  
Cooling Degree Days 15 16  
Month to date cooling degree days 309 287  
Year to date cooling degree days 1831 1544  
Since 1 June cooling degree days 1329 1237  
Growing Degree Days 30 (Base 50)    
Moisture  
Dew Point 70 °F    
Average Humidity 76    
Maximum Humidity 100    
Minimum Humidity 52    
Precipitation  
Precipitation 0.10 in 0.08 in 4.29 in (1969)
Month to date precipitation 1.72 1.50  
Year to date precipitation 21.51 32.21  
Snow  
Snow 0.00 in 0.00 in - ()
Month to date snowfall 0.0 0.0  
Since 1 June snowfall 0.0 0.0  
Since 1 July snowfall 0.0 0.0  
Snow Depth 0.00 in    
Sea Level Pressure  
Sea Level Pressure 29.96 in    
Wind  
Wind Speed 5 mph (NE)    
Max Wind Speed 32 mph    
Max Gust Speed 40 mph    
Visibility 10 miles    
Events Rain , Thunderstorm    
T = Trace of Precipitation, MM = Missing Value Source: NWS Daily Summary

Daily Weather History Graph

Daily Weather History Graph

Search for Another Location

Airport or City:

Trip Planner

Search our weather history database for the weather conditions in past years. The results will help you decide how hot, cold, wet, or windy it might be!

Date:

Astronomy

Aug. 17, 2012 Rise Set
Actual Time 6:30 AM CDT 7:51 PM CDT
Civil Twilight 6:04 AM CDT 8:18 PM CDT
Nautical Twilight 5:33 AM CDT 8:49 PM CDT
Astronomical Twilight 5:00 AM CDT 9:22 PM CDT
Moon 6:31 AM CDT (8/17) 7:40 PM CDT (8/17)
Length of Visible Light 14h 13m
Length of Day
13h 21m
New Moon, 0% of the Moon is Illuminated
Aug 17
New Moon
Aug 24
First Quarter
Aug 31
Full
Sep 8
Last Quarter
Sep 15
New

Hourly Weather History & Observations

Time (CDT) Temp. Heat Index Dew Point Humidity Pressure Visibility Wind Dir Wind Speed Gust Speed Precip Events Conditions
12:53 AM 79.0 °F - 69.1 °F 72% 29.99 in 10.0 mi WNW 6.9 mph - N/A   Overcast
1:05 AM 80.6 °F 83.2 °F 68.0 °F 65% 30.03 in 10.0 mi WNW 15.0 mph - N/A Thunderstorm Thunderstorm
1:53 AM 72.0 °F - 68.0 °F 87% 30.00 in 10.0 mi North 15.0 mph 24.2 mph 0.01 in Rain , Thunderstorm Light Rain
2:04 AM 71.6 °F - 69.8 °F 94% 30.00 in 10.0 mi NNE 10.4 mph - 0.01 in Rain Light Rain
2:53 AM 70.0 °F - 68.0 °F 93% 29.94 in 10.0 mi ENE 6.9 mph - 0.03 in Rain Light Rain
3:53 AM 70.0 °F - 68.0 °F 93% 29.93 in 10.0 mi Calm Calm - 0.01 in   Clear
4:53 AM 70.0 °F - 69.1 °F 97% 29.94 in 10.0 mi South 4.6 mph - N/A   Overcast
5:53 AM 70.0 °F - 69.1 °F 97% 29.96 in 10.0 mi North 6.9 mph - N/A   Partly Cloudy
6:53 AM 71.1 °F - 69.1 °F 93% 30.00 in 10.0 mi North 3.5 mph - N/A   Mostly Cloudy
7:53 AM 72.0 °F - 70.0 °F 93% 30.03 in 10.0 mi Calm Calm - N/A   Clear
8:53 AM 75.2 °F - 69.8 °F 83% 30.03 in 10.0 mi Calm Calm - N/A   Clear
9:53 AM 80.1 °F 82.9 °F 69.1 °F 69% 30.02 in 10.0 mi Calm Calm - N/A   Clear
10:53 AM 82.9 °F 86.5 °F 69.1 °F 63% 30.01 in 10.0 mi ESE 3.5 mph - N/A   Clear
11:53 AM 84.9 °F 88.8 °F 69.1 °F 59% 30.01 in 10.0 mi East 3.5 mph - N/A   Clear
12:53 PM 87.1 °F 91.3 °F 69.1 °F 55% 29.98 in 10.0 mi NNE 5.8 mph - N/A   Clear
1:53 PM 89.1 °F 95.0 °F 71.1 °F 55% 29.95 in 10.0 mi East 5.8 mph - N/A   Clear
2:53 PM 90.0 °F 95.4 °F 70.0 °F 52% 29.93 in 10.0 mi Calm Calm - 0.00 in   Partly Cloudy
3:53 PM 89.1 °F 95.0 °F 71.1 °F 55% 29.91 in 10.0 mi North 6.9 mph - N/A   Clear
4:53 PM 90.0 °F 96.9 °F 72.0 °F 55% 29.90 in 10.0 mi ENE 6.9 mph - 0.00 in   Scattered Clouds
5:53 PM 86.0 °F 91.5 °F 71.1 °F 61% 29.89 in 10.0 mi ENE 8.1 mph - N/A   Clear
6:53 PM 84.0 °F 89.0 °F 71.1 °F 65% 29.89 in 10.0 mi ENE 6.9 mph - N/A   Clear
7:53 PM 82.0 °F 87.4 °F 73.0 °F 74% 29.91 in 10.0 mi ENE 3.5 mph - N/A   Partly Cloudy
8:53 PM 79.0 °F - 73.0 °F 82% 29.93 in 10.0 mi NE 8.1 mph - N/A   Mostly Cloudy
9:24 PM 77.0 °F - 71.6 °F 83% 29.95 in 10.0 mi NNE 9.2 mph - N/A   Scattered Clouds
9:53 PM 75.9 °F - 70.0 °F 82% 29.95 in 10.0 mi NE 5.8 mph - N/A   Clear
10:03 PM 75.2 °F - 69.8 °F 83% 29.96 in 10.0 mi NE 5.8 mph - N/A Thunderstorm Scattered Clouds
10:53 PM 75.0 °F - 70.0 °F 84% 29.96 in 10.0 mi NE 6.9 mph - N/A Thunderstorm Mostly Cloudy
11:45 PM 73.4 °F - 69.8 °F 88% 29.97 in 9.0 mi North 8.1 mph - 0.01 in Rain , Thunderstorm Rain
11:53 PM 73.0 °F - 71.1 °F 93% 29.96 in 8.0 mi NNW 8.1 mph - 0.02 in Rain , Thunderstorm Rain